Showing default

OPS 9344 (IDSCS 22), 3287

Orbit data source: Space-Track

OPS 9344 (IDSCS 22), 3287 is a payload satellite owned by SAMSO (US) in GEO that was launched on Thu, 13 Jun 1968 UTC via a TITAN IIIC launch vehicle from the Air Force Eastern Test Range (AFETR). Payload-class satellites include a variety of spacecraft equipped with specific instruments for various scientific and technological missions. These include communications satellites like Starlink; space stations such as the ISS; scientific satellites like the Hubble; Earth observation satellites from companies like Planet Labs, Umbra, and HawkEye 360; GPS; miniature CubeSats for education and research; and military/defense satellites.

Not visible in the next 10 days
Identifier
3287, 1968-050D
Orbit
GEO
Last TLE update
10 hours ago
Origin
Manufacturer
Philco-Ford
Mission
Non-operational Defense Communications
Bus & Motor
IDCSP, Unknown motor
Mass
45 kg wet, 45 kg dry
Launch date (UTC)
1968-06-13 (57 years ago)
Launch vehicle
TITAN IIIC
Launch site
Air Force Eastern Test Range (AFETR)
Object type
Payload
Rocket body
Debris
Shape & HBR
Poly, 0.9 m
Radar Cross Section
0.926 m², Medium (>0.1 m² and < 1m²)

Expand to show TLE details & history

TLE from 10 hours ago
0 OPS 9344 (IDSCS 22)
1 03287U 68050D   25128.82268624 -.00000115  00000-0  00000-0 0  9993
2 03287   6.3551  55.9074 0024518 133.9589  32.2883  1.07640967222912
Epoch: 2025-05-08T19:44Z
Definitive object data (Epoch: 2025-05-08T19:44:40.091Z)
Latitude
1.47685°
Longitude
59.33452°
Altitude
33,755.158 km
Speed
3.155 km/s
True Right ascension
14h 49m 33s
True Declination
1° 28' 31"
Sunlit
Object was in daylight at TLE epoch
Visualization TLE readout
Latitude
-2.97672°
Longitude
-135.1392°
Altitude
33,933.527 km
Speed
3.141 km/s
Apparent Right ascension
01h 53m 33s
Apparent Declination
-7° 46' 22"
Sunlit
Object is in daylight
Visualization observer readout
Local Sidereal Time
14:09:10
Azimuth
7.243° NNE
Elevation
-57.667°
Doppler factor
1
Orbital elements
Apogee altitude
33,939.229 km
Perigee altitude
33,742.013 km
Semi-major axis
40,218.758 km
Eccentricity
0.0024518
Inclination
6.3551°
RAAN
55.9074°
Arg. of periapsis
133.9589°
True anomaly
32.43877°
Mean anomaly
32.2883°
Eccentric anomaly
32.3635°
Mean motion
0.26909 °/min
BSTAR
Unknown
Orbital period
1337.83 mins
Loading historical data...
3287 neighbors
Loading maneuver chart data...
Loading SW <> Apogee altitude chart data...
Loading historical data...
Loading historical data...
Loading historical data...
Loading historical data...
Loading historical data...
Loading historical data...
Loading historical data...

OPS 9344 (IDSCS 22) Visibility forecast

Observer location: undefined°, undefined°

OPS 9344 (IDSCS 22) is not visible in the next 10 days
Span
Click to sort rows by Start time (UTC) header in descending order
Start Az.
Max El. time (UTC)
Max El. Az.
Max El.
End time (UTC)
End Az.
|